Home > Weather > Kaufbeuren > Past weeks

Flag for Germany Weather for the Past 2 Weeks in Kaufbeuren, Bavaria, Germany

Now
30 °F

Chilly.


Feels Like: 27 °F
Forecast: 34 / 50 °F
Wind: 3 mph from Southwest

Location: Altenstadt Airport

Current Time: Feb 6, 2016 at 9:05:26 AM

Latest Report: Feb 6, 2016 at 8:20 AM


Visibility: N/A

Pressure: 30.12 "Hg (27.61 "Hg at 693m altitude)

Humidity: 93%

Dew point: 28 °F

Location of KaufbeurenLocation

Historic Weather in Kaufbeuren — Graph

°F

Kaufbeuren Temperature Yesterday

Maximum temperature yesterday: 43 °F (at 3:20 PM)
Minimum temperature yesterday: 28 °F (at 11:20 PM)
Average temperature yesterday: 37 °F

High & Low Weather Summary for the Past Weeks

 TemperatureHumidityPressure
High55 °F (Jan 26, 2:20 PM)100% (Jan 23, 10:20 PM)30.63 "Hg (Jan 23, 10:20 PM)
Low12 °F (Jan 22, 8:20 AM)39% (Jan 24, 9:20 PM)29.92 "Hg (Jan 30, 6:20 PM)
Average39 °F79%30.26 "Hg
* Reported Jan 22 7:20 AM — Feb 6 7:20 AM, Kaufbeuren, Weather by CustomWeather, © 2016

Note: Actual official high and low records may vary slightly from our data, if they occured in-between our weather recording intervals... More about our weather records

Advertising

Kaufbeuren Weather History for the Previous 24 Hours

 ConditionsComfort  
Time TempWeatherWind HumidityBarometerVisibility
7:20 AM
Sat, Feb 6
30 °FChilly.3 mph86%30.12 "HgN/A
6:20 AM30 °FChilly.2 mph93%30.15 "HgN/A
5:20 AM27 °FChilly.6 mph93%30.15 "HgN/A
4:20 AM28 °FChilly.3 mph93%30.15 "HgN/A
3:20 AM30 °FChilly.6 mph93%30.18 "HgN/A
2:20 AM28 °FChilly.5 mph100%30.18 "HgN/A
1:20 AM32 °FChilly.3 mph100%30.18 "HgN/A
12:20 AM30 °FChilly.3 mph100%30.21 "HgN/A
11:20 PM
Fri, Feb 5
28 °FChilly.6 mph100%30.21 "HgN/A
10:20 PM32 °FChilly.3 mph93%30.24 "HgN/A
9:20 PM32 °FChilly.3 mph93%30.24 "HgN/A
8:20 PM36 °FPassing clouds.2 mph93%30.27 "HgN/A
7:20 PM34 °FPassing clouds.3 mph93%30.27 "HgN/A
6:20 PM39 °FPassing clouds.3 mph81%30.30 "HgN/A
5:20 PM41 °FScattered clouds.5 mph81%30.30 "HgN/A
4:20 PM43 °FBroken clouds.7 mph76%30.30 "HgN/A
3:20 PM43 °FBroken clouds.7 mph76%30.30 "HgN/A
2:20 PM41 °FPartly sunny.12 mph81%30.30 "HgN/A
1:20 PM41 °FPartly sunny.15 mph76%30.33 "HgN/A
12:20 PM39 °FBroken clouds.14 mph87%30.36 "HgN/A
11:20 AM39 °FPartly sunny.12 mph87%30.36 "HgN/A
10:20 AM37 °FLight rain. Partly sunny.12 mph87%30.36 "HgN/A
9:20 AM36 °FPartly sunny.7 mph93%30.36 "HgN/A
Weather by CustomWeather, © 2016

See weather overviewHow to use our weather pages